This is the latest recevied weather packets stored in our database for station/object HS5SQI-2. If no packets are shown the sender has not sent any weather packets the latest 10 day(s).
| Time | Temp. | Humidity | Pressure | Rain* | Wind** | Luminosity | Snow |
|---|---|---|---|---|---|---|---|
| 1778044710 | 37.78° C | 54% | 1006 hPa | - | - | 0 W/m² | - |
| 1778044088 | 39.44° C | 49% | 1006 hPa | - | - | 0 W/m² | - |
| 1778043466 | 38.33° C | 54% | 1006 hPa | - | - | 0 W/m² | - |
| 1778042844 | 37.78° C | 54% | 1006 hPa | - | - | 0 W/m² | - |
| 1778042222 | 37.22° C | 57% | 1007 hPa | - | - | 0 W/m² | - |
| 1778041600 | 38.33° C | 55% | 1007 hPa | - | - | 0 W/m² | - |
| 1778040978 | 37.22° C | 55% | 1007 hPa | - | - | 0 W/m² | - |
| 1778040356 | 37.22° C | 56% | 1007 hPa | - | - | 0 W/m² | - |
| 1778039734 | 36.67° C | 54% | 1007 hPa | - | - | 0 W/m² | - |
| 1778039112 | 37.78° C | 54% | 1007 hPa | - | - | 0 W/m² | - |
| 1778038490 | 37.22° C | 55% | 1007 hPa | - | - | 0 W/m² | - |
| 1778037868 | 37.22° C | 56% | 1007 hPa | - | - | 0 W/m² | - |
| 1778037246 | 36.67° C | 58% | 1008 hPa | - | - | 0 W/m² | - |
| 1778036624 | 36.11° C | 57% | 1008 hPa | - | - | 0 W/m² | - |
| 1778036002 | 36.67° C | 57% | 1008 hPa | - | - | 0 W/m² | - |
| 1778035380 | 35.56° C | 60% | 1008 hPa | - | - | 0 W/m² | - |
| 1778034758 | 35.56° C | 58% | 1008 hPa | - | - | 0 W/m² | - |
| 1778034136 | 35.56° C | 63% | 1008 hPa | - | - | 0 W/m² | - |
| 1778033514 | 35° C | 62% | 1008 hPa | - | - | 0 W/m² | - |
| 1778032892 | 34.44° C | 64% | 1008 hPa | - | - | 0 W/m² | - |
| 1778032270 | 34.44° C | 66% | 1008 hPa | - | - | 0 W/m² | - |
| 1778031648 | 33.89° C | 70% | 1008 hPa | - | - | 0 W/m² | - |
| 1778031025 | 33.89° C | 71% | 1008 hPa | - | - | 0 W/m² | - |
| 1778030403 | 33.33° C | 73% | 1008 hPa | - | - | 0 W/m² | - |
| 1778029781 | 32.78° C | 76% | 1008 hPa | - | - | 0 W/m² | - |
* Rain since midnight (hover to see other rain measurements)
** Current wind speed in m/s (hover to see current wind gust speed)